Skip Page Navigation
NASA JPL Caltech
NASA Logo - Jet Propulsion Laboratory + View the NASA Portal
+ Center for Near-Earth Object Studies
JPL Home Earth Solar System Stars & Galaxies Technology
JPL Solar System Dynamics
BODIES ORBITS EPHEMERIDES TOOLS PHYSICAL DATA DISCOVERY FAQ SITE MAP
JPL Small-Body Database Browser
Search: [ help ]  
5767 Moldun (1986 RV2)
Classification: Main-belt Asteroid          SPK-ID: 2005767
Ephemeris | Orbit Diagram | Orbital Elements | Mission Design | Physical Parameters | Discovery Circumstances | Close-Approach Data ]

[ show orbit diagram ]
Orbital Elements at Epoch 2459000.5 (2020-May-31.0) TDB
Reference: JPL 24 (heliocentric ecliptic J2000)
 Element Value Uncertainty (1-sigma)   Units 
e .1867010107084672 2.6392e-08  
a 2.271789866480561 5.1254e-09 au
q 1.847644402291386 5.9716e-08 au
i 4.456938273396251 2.9767e-06 deg
node 187.9481987277574 3.802e-05 deg
peri 105.1641754816828 3.8929e-05 deg
M 351.2332822169473 7.7296e-06 deg
tp 2459030.956864357520
(2020-Jun-30.45686436)
2.684e-05 TDB
period 1250.692840814731
3.42
4.2326e-06
1.159e-08
d
yr
n .2878404579061054 9.741e-10 deg/d
Q 2.695935330669735 6.0824e-09 au
  Orbit Determination Parameters
   # obs. used (total)      2331  
   data-arc span      14983 days (41.02 yr)  
   first obs. used      1979-07-30  
   last obs. used      2020-08-06  
   planetary ephem.      DE431  
   SB-pert. ephem.      SB431-N16  
   condition code      0  
   norm. resid. RMS      .48045  
   source      ORB  
   producer      Otto Matic  
   solution date      2020-Aug-24 23:32:28  

Additional Information
 Earth MOID = .837859 au 
 Jupiter MOID = 2.50203 au 
 T_jup = 3.585 
[ show covariance matrix ]

Ephemeris | Orbit Diagram | Orbital Elements | Mission Design | Physical Parameters | Discovery Circumstances | Close-Approach Data ]

Physical Parameter Table
Parameter Symbol Value Units Sigma Reference Notes
absolute magnitude H 14.2   n/a MPO435754  
diameter diameter 4.103 km 0.116 urn:nasa:pds:neowise_diameters_albedos::2.0[mainbelt] (http://adsabs.harvard.edu/abs/2014ApJ...791..121M)  
geometric albedo albedo 0.264   0.074 urn:nasa:pds:neowise_diameters_albedos::2.0[mainbelt] (http://adsabs.harvard.edu/abs/2014ApJ...791..121M)  

5767 Moldun (1986 RV2)          Discovered 1986-Sep-06 by Bowell, E. at Flagstaff
Reference: DISCOVERY.DBLast Updated: 2003-08-29

[ show close-approach data ]
Alternate Designations
 1986 RV2 = 1979 OW15 = 1989 LC 
Ephemeris | Orbit Diagram | Orbital Elements | Mission Design | Physical Parameters | Discovery Circumstances | Close-Approach Data ]
ABOUT SSD CREDITS/AWARDS PRIVACY/COPYRIGHT GLOSSARY LINKS
FirstGov 2020-Oct-30 11:07 UT
(server date/time)  
NASA Home Page
Site Manager:   Ryan S. Park
Webmaster  Alan B. Chamberlin